Vorticity
9 9 9 9 8 7 7 6 6 5 4 4 4 4 3 3 3 3 3 3 4 4 4 4 4 4 4 3 3 3 4 7 10 14 18 21 23 25 26 27 26 26 26 27 28 29 30 29 25 20 15 11 9 8 8 8 10 12 13 14 15 15 15 14 13 13 13 14 15 16 18 18 19 19 19 20 21 22 23 24 26 28 29 29 29 29
9 9 9 8 8 7 6 6 5 4 4 4 4 3 3 3 3 3 4 4 4 4 4 4 4 3 3 3 4 5 7 10 14 18 22 24 26 27 27 27 27 27 27 28 29 30 29 26 21 16 12 10 9 9 9 10 12 13 14 14 14 14 13 13 12 12 13 14 16 17 18 19 20 20 20 20 22 23 25 27 29 31 33 34 34 34
8 8 8 8 7 6 5 5 5 4 4 3 3 3 3 3 4 4 4 4 4 4 4 4 3 3 3 4 5 7 11 15 19 22 25 26 28 28 28 28 27 27 28 29 30 29 26 22 18 14 12 10 10 9 10 12 13 14 14 14 14 13 12 12 11 12 13 15 16 18 20 20 20 20 20 21 22 24 26 29 31 33 34 37 37 35
8 8 7 6 6 6 5 4 4 4 4 3 3 3 4 4 4 4 4 4 4 4 4 3 3 3 4 5 8 11 15 19 22 25 28 29 29 29 29 28 28 28 29 29 28 25 22 18 15 13 12 11 10 11 12 13 14 14 14 13 13 12 11 11 11 12 13 16 18 20 21 21 21 21 20 21 22 24 26 28 30 33 36 40 39 36
8 7 6 5 5 5 4 4 4 4 4 4 4 4 4 4 4 4 4 4 4 3 3 3 3 4 6 8 12 16 19 23 26 29 30 31 30 30 30 29 29 29 28 27 24 21 17 15 14 13 12 11 11 12 13 14 15 14 13 12 12 11 11 11 12 13 14 16 19 20 22 22 21 21 20 20 21 23 24 26 28 30 33 37 37 36
7 7 5 5 4 4 4 4 4 4 4 4 4 4 4 5 5 4 4 4 3 3 2 3 4 7 9 13 17 20 24 28 30 32 33 32 32 31 29 28 28 27 26 23 20 17 15 14 13 13 12 12 12 13 15 15 15 13 12 12 11 11 11 11 12 13 15 17 19 21 22 22 21 20 20 20 20 21 22 24 26 28 30 32 34 35
6 6 5 5 4 4 4 4 4 4 4 4 4 4 5 4 4 4 4 3 3 2 3 4 7 11 16 21 24 26 29 32 34 34 34 33 32 30 28 27 26 24 22 19 17 15 14 14 13 13 13 13 13 15 16 16 14 13 12 11 11 11 11 12 12 14 16 18 20 21 21 21 21 20 20 20 19 20 20 22 23 25 27 29 30 32
5 5 5 4 4 4 4 4 4 4 4 4 4 4 4 4 4 4 3 3 3 3 5 8 13 19 25 28 30 31 33 34 35 34 33 31 29 28 26 24 23 21 18 16 14 14 14 13 13 13 13 13 15 16 16 15 13 12 11 11 11 11 11 12 13 14 16 18 19 20 20 20 20 19 19 19 18 18 19 20 21 23 24 26 27 29
4 4 4 4 4 4 4 4 4 4 4 4 4 4 4 3 3 3 3 4 5 7 9 14 20 26 31 32 33 34 35 35 34 33 30 29 27 25 24 22 20 18 16 14 13 13 14 13 13 13 13 15 16 16 16 14 13 11 11 11 11 12 12 12 13 14 15 17 18 18 18 18 18 18 18 18 18 18 18 18 19 20 22 23 25 26
4 4 4 4 4 4 4 4 4 5 5 4 4 4 4 3 3 3 3 5 8 12 16 21 25 29 31 33 34 34 32 33 33 32 29 27 26 24 22 19 17 15 14 13 13 13 13 13 13 13 14 16 17 17 16 14 12 11 11 11 12 12 12 12 12 13 14 15 16 16 15 15 15 16 16 17 17 17 17 17 17 18 19 20 22 24
4 4 4 4 4 4 5 4 4 4 4 4 4 4 4 4 4 4 4 8 11 16 22 28 30 31 30 32 33 33 30 29 29 29 28 26 24 22 19 16 14 13 13 13 13 13 13 13 13 14 15 16 17 17 16 13 11 10 11 11 12 12 11 12 12 13 13 13 13 13 12 12 12 13 14 15 16 16 16 16 16 16 17 18 19 20
4 4 4 4 4 5 5 5 4 4 4 4 3 3 3 4 5 6 7 11 15 20 25 30 34 36 36 33 31 31 31 29 26 25 24 24 22 19 16 13 12 12 12 13 13 13 13 13 13 14 16 17 18 17 15 12 11 10 11 12 12 12 11 11 12 12 12 12 11 10 9 9 9 9 10 12 13 14 15 16 16 16 16 16 16 17
4 4 4 4 5 5 4 4 4 4 4 4 4 3 3 4 6 8 12 16 22 26 28 31 36 40 42 37 33 30 29 27 25 23 22 21 18 16 13 12 12 12 13 13 13 13 13 13 14 15 16 18 18 17 14 12 10 10 11 12 12 11 11 11 11 11 11 10 9 7 6 6 6 6 7 9 10 12 13 13 14 14 14 14 15 15
4 4 5 5 5 5 4 4 4 4 4 4 4 5 5 6 8 12 18 24 29 33 33 36 38 40 41 39 35 30 26 24 22 21 20 18 15 13 12 12 12 13 13 13 13 13 13 13 14 15 17 19 18 17 14 11 10 10 11 11 11 11 10 10 10 10 10 8 7 6 5 4 4 4 5 6 7 9 10 11 12 12 13 13 13 13
4 4 5 5 5 4 4 4 4 4 3 4 5 6 7 10 14 19 24 29 31 33 36 39 40 39 39 35 31 27 24 22 20 18 17 15 13 13 13 13 13 13 13 13 13 13 12 13 14 16 18 19 19 16 13 10 9 9 11 11 11 10 10 10 10 10 9 8 6 5 4 4 3 4 4 5 6 7 8 9 9 10 10 10 10 10
4 4 4 4 4 4 4 4 4 4 4 5 6 9 12 16 21 25 30 32 32 33 38 38 38 37 37 31 26 22 20 19 18 16 15 13 13 13 13 13 13 13 13 13 12 12 12 13 15 18 20 20 19 16 12 10 9 9 10 11 10 10 9 9 9 9 9 7 6 5 4 4 4 4 5 5 6 6 7 7 8 8 8 8 8 8
4 4 4 4 4 4 4 4 4 5 6 7 11 15 18 22 25 30 35 35 36 38 42 40 38 34 28 26 23 20 18 17 16 14 13 13 13 13 13 13 13 13 13 12 12 12 13 15 17 20 22 21 19 15 11 9 8 9 10 10 10 9 8 8 8 8 8 8 7 6 6 5 5 6 6 7 7 7 7 7 7 7 7 7 7 7
4 4 4 4 4 4 3 4 5 7 9 12 16 20 25 29 32 35 38 39 40 41 41 41 39 34 24 21 19 19 18 16 14 13 13 13 13 13 13 13 13 12 12 12 12 13 14 17 19 21 22 21 18 14 10 8 8 8 10 10 10 9 8 7 7 7 8 8 8 8 7 7 8 8 8 9 9 9 8 8 8 7 7 7 7 7
4 4 4 4 4 4 4 6 7 10 13 18 20 23 28 33 37 40 41 42 42 41 37 36 34 30 24 20 18 16 16 14 13 12 13 13 13 13 13 12 12 12 12 12 13 14 17 20 22 24 23 21 17 13 10 8 8 8 9 10 10 9 8 7 7 7 7 8 9 9 10 10 10 10 11 11 11 11 10 10 9 9 9 9 8 8
4 4 4 4 4 4 6 9 12 15 18 20 23 27 32 35 38 42 44 42 41 39 35 31 27 23 21 19 17 15 14 13 12 12 12 12 12 12 12 12 12 12 13 14 16 17 20 23 24 25 24 20 16 12 9 8 7 8 9 9 9 9 8 7 6 6 7 8 9 11 12 13 13 13 13 13 13 13 13 12 12 11 11 10 10 10
4 4 4 4 5 6 8 12 16 20 23 24 29 34 38 37 39 42 42 38 35 32 29 26 22 19 18 17 15 14 13 13 12 12 11 11 11 11 12 12 13 14 15 17 19 20 23 25 26 25 22 18 15 11 9 8 7 8 9 9 9 9 8 7 7 6 7 8 10 12 14 15 15 15 16 16 16 16 15 14 13 13 12 12 11 11
4 4 4 5 6 8 11 15 19 24 28 30 35 38 38 38 39 39 36 33 29 26 22 21 19 18 17 15 14 13 13 12 11 11 11 10 10 11 12 13 15 17 19 20 22 23 25 26 26 24 21 17 13 11 9 8 8 8 8 9 9 9 8 8 7 7 7 9 12 14 16 16 17 17 17 17 17 16 16 14 14 13 12 11 11 10
4 4 5 6 8 11 15 19 24 29 33 37 40 41 41 41 39 37 34 30 26 22 19 18 16 15 14 13 13 13 12 11 10 10 10 10 11 13 14 16 18 21 23 24 24 24 25 26 24 22 19 15 13 10 9 8 8 8 9 9 9 9 9 8 8 8 8 11 13 16 18 18 18 17 17 17 16 16 14 13 12 11 11 10 9 9
4 5 5 7 11 16 22 26 30 32 36 40 42 43 42 42 40 36 31 27 22 19 16 15 14 13 13 13 12 12 11 10 9 9 9 10 13 15 17 19 21 24 26 26 25 24 24 23 22 20 17 14 12 11 10 9 9 9 9 9 9 9 9 9 8 9 10 13 16 18 19 18 18 17 17 16 15 14 13 11 10 10 9 8 8 8
5 6 8 12 17 23 28 31 34 36 38 40 42 42 40 38 34 30 24 19 15 13 13 13 13 13 13 12 11 11 9 9 8 9 10 13 15 18 20 21 23 25 27 26 24 23 21 20 19 17 16 14 13 11 11 10 10 10 10 10 10 10 10 9 9 10 12 15 18 19 19 18 17 16 15 14 13 12 11 10 10 9 8 8 7 7
7 9 12 18 23 28 32 35 37 39 40 42 42 40 36 31 26 21 17 14 13 13 13 13 12 12 12 12 11 9 8 8 8 10 12 15 18 21 23 23 24 24 25 24 23 21 19 18 16 15 14 13 13 12 12 11 11 11 10 10 10 10 10 10 11 12 15 18 20 20 19 17 16 15 13 13 12 11 10 10 9 9 9 8 8 7
9 13 18 23 28 32 36 38 39 40 41 42 40 36 30 24 19 16 14 13 13 13 12 12 12 12 12 11 10 9 8 8 10 12 15 18 21 23 24 23 23 23 22 22 21 19 17 16 14 14 14 13 13 13 13 12 12 11 11 11 11 11 11 11 13 15 18 20 20 20 17 16 14 13 12 11 11 10 10 10 9 9 9 9 8 7
13 18 23 28 32 36 38 39 40 40 40 38 35 30 24 19 16 15 14 13 13 12 12 12 12 12 11 10 9 8 8 9 11 14 17 20 22 24 24 22 21 20 20 19 18 17 16 15 14 13 14 13 13 13 13 13 13 13 12 12 12 12 12 13 15 17 20 21 20 18 16 14 12 11 11 10 9 9 8 8 8 9 9 9 8 7
18 24 29 33 36 38 39 39 39 38 36 33 28 24 19 16 15 14 13 12 12 12 12 12 12 11 11 10 9 8 8 11 13 16 19 21 23 23 22 21 20 19 17 16 16 15 15 15 14 13 13 13 14 14 14 14 14 14 14 13 13 13 13 14 17 19 22 21 19 16 14 12 11 10 9 8 7 6 6 6 6 7 7 7 7 6
24 28 33 37 39 39 38 38 36 34 31 27 22 18 16 15 14 13 12 12 12 12 11 12 12 11 11 10 9 8 9 13 16 18 20 22 22 22 21 21 20 18 17 15 14 13 14 14 14 14 14 14 15 15 15 15 15 15 15 14 14 14 14 16 19 21 22 20 17 14 12 11 10 9 8 7 5 4 3 3 4 4 5 5 5 4
27 31 35 36 37 37 37 36 33 30 25 21 18 15 14 14 13 13 12 12 11 11 11 12 12 11 11 10 9 9 12 16 18 20 21 21 21 20 20 20 19 18 17 16 14 13 14 13 14 14 14 15 16 16 16 16 16 16 15 15 15 15 16 18 20 21 21 18 16 13 11 10 9 8 7 5 4 3 3 3 3 4 4 5 4 4
29 32 34 34 34 35 35 33 30 25 20 17 15 14 13 13 13 13 12 12 11 11 11 12 12 12 11 10 9 10 14 18 20 21 21 20 20 19 19 19 18 17 17 16 16 15 14 14 14 14 15 16 16 16 16 16 16 16 15 16 16 16 18 19 20 20 19 16 14 12 10 9 8 6 5 4 3 3 3 3 4 5 5 5 5 4
31 33 34 34 34 34 33 30 25 20 16 14 13 13 13 14 13 13 12 11 11 11 11 12 12 12 11 10 10 11 15 18 20 21 20 20 19 19 19 18 17 16 16 15 15 15 15 15 14 14 15 16 16 16 15 16 16 16 16 16 16 17 18 20 20 19 17 15 12 10 9 8 6 5 4 4 3 3 4 4 5 5 6 6 6 5
32 34 34 34 34 32 30 24 20 16 13 13 13 13 14 14 13 12 11 10 10 11 12 12 12 12 11 10 11 12 15 18 20 21 20 20 20 19 18 17 16 15 14 14 13 14 14 14 14 14 15 16 16 16 15 16 16 16 16 16 17 18 18 19 19 18 16 13 11 9 8 6 5 4 3 3 3 3 4 4 5 6 6 6 6 6
33 34 35 34 32 29 25 20 16 13 12 13 13 14 15 14 13 12 10 10 10 11 12 13 13 12 11 10 11 13 16 18 19 20 20 21 20 19 18 16 14 13 13 13 13 13 13 14 14 14 15 15 16 16 16 16 16 16 16 16 17 18 18 18 17 16 14 12 10 8 7 5 4 4 3 3 3 3 4 5 5 6 6 5 5 5
34 35 34 32 28 24 21 17 15 13 13 13 14 15 15 14 13 11 9 9 10 11 12 13 13 13 11 10 11 13 15 17 18 19 20 21 21 20 18 16 14 13 12 12 11 12 12 13 13 14 14 15 15 15 15 15 15 15 15 16 16 17 17 17 16 15 13 11 9 8 6 5 4 4 3 3 4 4 4 5 5 5 5 4 4 3
34 34 32 29 25 21 18 16 15 14 14 14 15 16 15 14 12 10 9 9 10 11 13 14 14 13 11 10 11 13 15 16 17 18 19 21 21 20 17 15 13 11 11 10 10 11 11 12 13 14 14 15 15 15 15 14 14 14 14 15 15 15 16 15 14 13 12 10 8 7 6 5 5 4 4 4 4 4 4 4 4 4 4 3 3 3
34 32 29 26 22 19 17 16 15 15 15 15 15 15 15 13 11 9 8 8 9 11 13 14 14 13 11 11 12 14 16 17 17 17 18 20 21 20 17 14 12 10 10 10 10 10 10 11 12 13 14 14 14 14 14 14 14 14 15 15 14 14 14 14 13 12 11 9 8 7 6 6 5 5 5 5 5 4 4 4 3 3 3 3 2 2
32 29 26 24 21 19 17 16 16 16 15 16 16 15 14 12 10 9 8 8 9 11 13 14 15 14 12 11 12 15 18 18 18 18 18 20 20 19 16 12 10 9 9 9 9 9 10 11 12 13 13 13 14 14 14 13 14 14 15 14 13 13 13 12 12 11 10 9 8 7 7 7 6 6 6 6 6 5 4 4 4 4 4 4 3 2
29 27 25 23 20 18 17 16 16 16 16 16 16 15 14 12 10 9 8 8 9 10 13 15 15 15 13 12 13 15 19 20 20 19 19 19 19 18 14 11 9 8 8 8 8 8 9 10 11 12 13 13 13 13 13 13 13 13 13 13 13 13 12 11 10 10 9 8 8 8 7 7 7 7 7 7 6 6 6 5 5 5 6 6 6 6
28 26 24 22 20 18 17 17 17 18 17 16 16 15 14 12 10 9 7 7 8 10 12 14 16 16 14 13 13 15 18 21 21 21 20 19 18 16 13 10 8 7 7 7 7 7 8 8 10 11 12 13 13 13 13 13 13 12 12 12 12 12 12 10 9 9 9 8 8 8 7 7 7 7 7 6 6 6 6 6 6 6 6 6 6 7
27 26 24 22 20 18 17 17 18 18 18 17 16 15 13 12 10 8 7 6 7 9 11 13 15 16 16 14 13 14 16 20 21 22 21 20 18 15 13 10 7 6 6 6 6 7 7 7 8 9 10 12 12 13 13 13 12 12 11 11 11 11 10 9 9 9 8 8 8 8 8 7 7 7 7 6 6 5 5 5 5 5 6 5 5 5
27 25 23 22 20 18 17 18 19 19 18 17 16 15 13 12 10 8 6 6 6 8 10 12 14 15 14 14 14 13 14 17 20 21 21 20 18 15 12 10 8 6 5 5 5 6 6 7 7 8 9 10 11 12 13 13 13 12 11 10 10 10 9 9 9 8 8 8 8 7 8 8 8 8 7 6 6 5 5 5 4 4 4 5 5 5
25 24 23 21 19 18 17 18 19 20 19 18 16 14 13 12 10 8 6 5 6 7 8 11 13 14 14 13 13 13 13 16 18 19 20 19 17 15 13 10 8 7 5 5 5 5 5 5 6 7 7 8 9 10 11 13 13 13 12 11 10 9 9 9 9 8 7 7 7 7 7 7 7 7 6 6 5 5 5 4 4 3 3 4 4 5
24 23 22 21 19 18 17 18 20 21 20 18 16 14 12 11 10 8 6 5 5 6 7 9 11 13 13 13 12 12 12 14 16 17 18 18 17 15 13 11 9 8 6 5 5 4 4 5 5 6 6 6 7 8 9 11 12 13 13 12 11 10 10 9 8 7 7 7 7 7 7 7 7 6 6 6 5 5 5 5 4 4 3 4 4 4
23 22 22 21 19 17 17 18 20 22 22 19 17 14 12 11 10 8 6 5 4 4 5 7 10 12 13 13 12 12 11 12 14 16 17 18 17 15 13 11 10 9 8 6 5 4 4 4 4 5 5 5 6 7 7 8 10 11 12 13 12 12 11 10 9 8 7 7 7 6 6 6 5 5 5 5 5 5 4 4 4 4 5 4 4 4
22 21 21 20 18 17 16 18 20 22 23 21 18 15 13 11 10 9 7 5 4 4 4 6 8 10 12 13 13 12 11 11 12 13 15 17 17 17 15 13 11 9 9 8 7 6 5 4 4 4 4 4 5 6 6 6 7 8 10 11 12 12 12 12 11 10 9 8 7 7 6 5 5 4 5 5 4 4 4 4 4 4 5 5 5 4
21 20 20 20 18 17 16 17 20 22 24 22 19 16 13 12 10 9 7 6 4 4 3 4 6 8 10 12 13 13 12 11 11 11 13 14 16 17 17 15 13 11 9 9 8 8 7 6 5 5 4 5 5 5 6 6 6 7 8 9 10 11 11 12 12 11 10 9 9 8 7 6 6 6 6 5 4 4 4 4 4 4 4 5 5 4
20 19 19 19 18 16 15 16 18 21 24 23 21 18 15 13 11 10 8 7 5 4 3 4 4 6 8 10 12 13 13 12 11 10 11 12 14 15 17 17 16 14 12 11 10 9 9 9 8 7 6 6 6 6 7 7 7 7 7 7 8 9 10 11 11 12 11 11 10 9 9 8 8 7 7 6 6 5 5 5 5 4 4 4 4 4
21 19 18 18 17 16 15 15 16 19 23 24 23 21 17 14 12 10 9 8 6 5 4 3 4 4 6 8 10 12 13 13 12 11 10 11 11 13 14 16 16 16 16 15 13 12 11 11 11 11 10 9 9 9 9 9 9 9 8 8 8 8 9 9 10 10 11 11 11 10 10 9 9 8 8 7 7 6 6 6 5 5 4 5 5 5
21 19 18 18 17 16 15 14 14 17 21 24 24 23 20 17 14 12 10 8 7 6 5 4 3 4 4 6 8 10 12 13 13 12 11 11 10 11 11 13 14 15 16 16 16 16 15 14 13 12 12 13 12 12 12 13 13 12 12 11 11 10 9 9 9 10 10 10 10 10 10 10 10 10 9 9 8 8 7 7 7 7 6 6 6 6
Height
5658 5655 5651 5649 5646 5642 5638 5636 5633 5630 5625 5621 5617 5614 5611 5607 5603 5600 5596 5593 5589 5584 5580 5575 5571 5566 5562 5557 5553 5549 5544 5539 5535 5530 5525 5521 5516 5511 5507 5503 5499 5495 5491 5488 5485 5482 5480 5476 5474 5472 5470 5467 5465 5462 5460 5458 5456 5453 5450 5447 5444 5441 5438 5435 5432 5428 5425 5422 5418 5415 5411 5409 5406 5402 5399 5396 5393 5389 5386 5383 5380 5377 5375 5373 5371 5370
5654 5651 5647 5645 5642 5638 5634 5631 5628 5626 5622 5618 5614 5610 5606 5602 5598 5594 5591 5587 5583 5579 5575 5570 5565 5560 5556 5551 5547 5542 5538 5533 5528 5523 5519 5514 5510 5506 5501 5497 5494 5490 5487 5484 5481 5478 5476 5473 5471 5468 5466 5464 5462 5459 5457 5455 5452 5450 5447 5444 5441 5438 5435 5432 5429 5426 5422 5419 5416 5412 5409 5406 5402 5399 5396 5393 5390 5386 5383 5380 5377 5374 5371 5369 5368 5366
5651 5647 5644 5641 5638 5635 5631 5627 5623 5620 5618 5614 5610 5606 5602 5597 5593 5589 5586 5581 5577 5573 5568 5564 5560 5554 5549 5545 5541 5536 5532 5527 5522 5517 5513 5508 5504 5500 5496 5492 5489 5486 5482 5479 5477 5474 5472 5470 5468 5465 5463 5461 5459 5456 5454 5451 5449 5446 5444 5441 5438 5435 5432 5429 5426 5423 5420 5416 5413 5410 5406 5403 5399 5396 5393 5390 5387 5384 5381 5377 5374 5371 5369 5367 5365 5364
5648 5645 5641 5637 5634 5631 5628 5624 5620 5616 5612 5609 5606 5601 5597 5593 5588 5584 5580 5576 5572 5567 5563 5558 5554 5549 5543 5538 5534 5530 5526 5521 5516 5511 5507 5502 5499 5495 5491 5487 5484 5481 5478 5475 5473 5471 5469 5466 5465 5462 5460 5458 5456 5453 5451 5448 5446 5443 5441 5438 5436 5433 5430 5426 5423 5420 5417 5414 5411 5407 5404 5400 5397 5394 5391 5388 5385 5381 5378 5375 5371 5369 5366 5364 5362 5361
5645 5642 5638 5634 5631 5627 5623 5619 5616 5611 5607 5603 5600 5597 5593 5588 5584 5579 5574 5570 5566 5561 5556 5552 5548 5543 5537 5532 5527 5523 5519 5515 5511 5506 5501 5497 5493 5489 5486 5482 5480 5477 5474 5472 5469 5467 5465 5463 5461 5459 5457 5455 5452 5450 5448 5446 5443 5441 5438 5436 5433 5430 5427 5424 5421 5418 5415 5411 5408 5405 5401 5398 5395 5392 5389 5386 5383 5379 5376 5372 5369 5366 5363 5361 5359 5357
5641 5638 5635 5631 5627 5624 5620 5616 5611 5607 5602 5597 5593 5590 5587 5583 5579 5575 5570 5565 5560 5555 5550 5545 5541 5536 5531 5526 5521 5516 5513 5509 5505 5501 5496 5491 5488 5484 5481 5478 5475 5473 5471 5468 5466 5464 5462 5460 5458 5456 5454 5451 5449 5447 5445 5443 5441 5438 5436 5433 5431 5428 5425 5422 5419 5416 5412 5409 5406 5403 5399 5396 5393 5390 5387 5384 5381 5377 5374 5371 5367 5364 5361 5359 5356 5354
5637 5634 5631 5628 5624 5620 5616 5612 5609 5605 5600 5594 5588 5583 5579 5576 5572 5569 5565 5560 5555 5550 5544 5538 5532 5527 5523 5519 5514 5510 5506 5502 5499 5495 5491 5487 5483 5480 5476 5474 5471 5469 5467 5465 5463 5461 5459 5457 5455 5453 5451 5449 5446 5444 5442 5440 5438 5436 5433 5431 5428 5425 5422 5420 5417 5414 5411 5407 5404 5401 5398 5395 5392 5389 5386 5383 5380 5376 5373 5370 5366 5363 5360 5358 5355 5353
5634 5630 5626 5623 5620 5615 5611 5606 5604 5601 5597 5592 5586 5581 5575 5569 5564 5560 5557 5553 5550 5545 5539 5533 5526 5519 5514 5510 5506 5503 5500 5496 5493 5490 5486 5483 5479 5476 5473 5470 5468 5466 5464 5462 5460 5458 5456 5454 5452 5450 5448 5446 5444 5441 5440 5437 5436 5433 5431 5429 5426 5423 5421 5418 5415 5412 5409 5406 5403 5400 5397 5394 5391 5388 5385 5382 5379 5376 5372 5369 5366 5363 5360 5357 5355 5352
5631 5627 5623 5619 5616 5613 5607 5601 5597 5594 5591 5587 5583 5579 5574 5568 5561 5554 5548 5544 5541 5537 5533 5528 5522 5515 5507 5501 5498 5496 5493 5490 5487 5485 5482 5479 5476 5473 5470 5467 5465 5463 5461 5460 5458 5456 5453 5451 5449 5447 5445 5443 5441 5439 5437 5435 5433 5431 5429 5427 5424 5421 5419 5416 5413 5410 5407 5405 5402 5399 5396 5393 5390 5387 5384 5381 5378 5375 5372 5369 5366 5363 5361 5357 5355 5352
5627 5624 5620 5616 5612 5609 5605 5600 5594 5588 5584 5580 5576 5572 5569 5566 5561 5553 5546 5538 5533 5528 5525 5521 5517 5512 5506 5498 5492 5488 5487 5485 5482 5480 5478 5476 5473 5470 5466 5464 5462 5460 5459 5457 5455 5453 5451 5449 5447 5445 5442 5441 5438 5436 5435 5433 5431 5429 5427 5425 5422 5420 5417 5414 5411 5409 5406 5403 5401 5398 5395 5392 5390 5387 5384 5381 5378 5375 5372 5370 5367 5364 5361 5358 5356 5353
5623 5620 5616 5612 5607 5603 5599 5595 5590 5585 5580 5575 5570 5564 5560 5557 5554 5550 5544 5537 5530 5524 5518 5513 5509 5506 5503 5497 5491 5485 5482 5480 5478 5476 5474 5472 5469 5466 5464 5461 5459 5457 5456 5454 5452 5450 5448 5446 5444 5442 5440 5438 5436 5434 5433 5431 5429 5427 5425 5423 5420 5418 5415 5413 5410 5407 5405 5402 5400 5397 5394 5392 5389 5386 5384 5381 5378 5376 5373 5370 5367 5365 5362 5360 5357 5355
5620 5616 5612 5608 5603 5599 5594 5589 5584 5579 5575 5571 5566 5560 5554 5548 5545 5541 5537 5532 5527 5521 5516 5509 5503 5499 5496 5493 5489 5484 5480 5477 5475 5473 5471 5468 5466 5464 5461 5458 5456 5454 5453 5451 5449 5447 5445 5443 5441 5440 5438 5436 5434 5432 5431 5429 5427 5425 5423 5421 5418 5416 5414 5411 5409 5406 5404 5401 5399 5396 5394 5391 5389 5386 5384 5381 5379 5376 5373 5371 5368 5366 5363 5361 5358 5356
5616 5612 5608 5603 5599 5595 5590 5585 5580 5575 5570 5566 5561 5556 5551 5545 5540 5535 5531 5526 5521 5516 5511 5506 5500 5494 5490 5487 5484 5480 5477 5474 5472 5470 5468 5466 5464 5462 5459 5456 5454 5452 5450 5448 5446 5445 5443 5441 5439 5437 5436 5433 5432 5430 5429 5427 5425 5423 5421 5419 5417 5415 5412 5410 5408 5405 5403 5401 5398 5396 5394 5391 5389 5386 5384 5382 5379 5376 5374 5371 5369 5367 5364 5362 5360 5358
5612 5608 5603 5598 5594 5590 5586 5581 5576 5570 5565 5561 5556 5551 5546 5541 5535 5531 5526 5521 5515 5510 5506 5501 5496 5490 5486 5483 5480 5477 5473 5471 5469 5467 5466 5464 5462 5460 5457 5454 5452 5450 5448 5446 5444 5442 5441 5439 5436 5435 5433 5431 5430 5428 5426 5425 5423 5421 5420 5417 5415 5413 5411 5409 5406 5404 5402 5400 5397 5395 5393 5391 5389 5386 5384 5382 5379 5377 5375 5372 5370 5367 5365 5363 5361 5359
5608 5604 5599 5594 5589 5585 5581 5576 5571 5565 5560 5555 5550 5545 5541 5535 5529 5524 5520 5516 5511 5506 5501 5497 5492 5486 5481 5478 5477 5475 5472 5468 5466 5465 5463 5461 5460 5458 5456 5453 5450 5448 5446 5444 5442 5440 5438 5436 5434 5432 5431 5429 5427 5426 5425 5423 5421 5420 5418 5416 5414 5412 5410 5408 5406 5403 5401 5399 5397 5395 5392 5390 5388 5386 5384 5382 5380 5377 5375 5373 5371 5368 5366 5364 5362 5360
5604 5600 5595 5590 5585 5580 5575 5571 5566 5561 5555 5549 5543 5539 5534 5530 5524 5519 5514 5510 5506 5502 5498 5495 5491 5486 5480 5475 5473 5472 5471 5467 5464 5462 5461 5459 5457 5456 5454 5451 5449 5446 5444 5442 5440 5438 5436 5434 5432 5430 5428 5427 5425 5424 5423 5421 5420 5418 5416 5414 5412 5411 5409 5406 5405 5402 5401 5398 5396 5394 5392 5390 5388 5386 5384 5381 5380 5377 5375 5373 5371 5369 5367 5365 5363 5361
5600 5596 5591 5586 5580 5575 5570 5566 5561 5555 5550 5543 5537 5532 5527 5523 5518 5514 5509 5505 5501 5497 5493 5490 5488 5485 5481 5475 5471 5469 5468 5466 5463 5461 5459 5457 5456 5454 5452 5450 5447 5445 5442 5440 5438 5436 5434 5432 5430 5428 5426 5425 5423 5422 5421 5420 5418 5416 5415 5413 5411 5409 5407 5406 5403 5401 5400 5397 5396 5393 5391 5389 5387 5385 5383 5381 5379 5377 5375 5374 5371 5370 5367 5366 5364 5362
5596 5592 5587 5582 5576 5571 5566 5561 5556 5550 5544 5538 5532 5526 5520 5515 5511 5507 5503 5499 5496 5492 5489 5486 5483 5481 5479 5475 5471 5468 5466 5464 5462 5459 5457 5456 5453 5451 5450 5448 5445 5443 5441 5438 5436 5434 5432 5430 5428 5426 5424 5423 5421 5421 5419 5418 5416 5415 5413 5411 5410 5408 5406 5404 5402 5401 5399 5397 5395 5393 5391 5389 5387 5385 5383 5381 5379 5377 5376 5374 5372 5370 5368 5366 5365 5363
5592 5588 5584 5579 5573 5567 5561 5556 5551 5546 5540 5533 5527 5522 5516 5511 5506 5501 5497 5493 5490 5487 5485 5483 5480 5478 5476 5473 5470 5467 5465 5462 5460 5458 5456 5454 5451 5449 5447 5445 5443 5441 5438 5436 5433 5431 5429 5427 5426 5424 5422 5421 5420 5419 5417 5416 5415 5413 5411 5410 5408 5406 5405 5403 5401 5400 5398 5396 5394 5392 5390 5388 5386 5385 5383 5381 5379 5377 5376 5374 5372 5371 5369 5367 5366 5364
5588 5583 5579 5576 5571 5565 5558 5551 5545 5539 5534 5528 5522 5517 5512 5507 5502 5497 5493 5490 5486 5484 5481 5480 5478 5476 5473 5471 5468 5466 5463 5461 5458 5456 5454 5452 5450 5447 5445 5443 5441 5438 5436 5433 5431 5429 5427 5425 5424 5422 5421 5419 5418 5417 5416 5415 5413 5412 5410 5408 5407 5405 5404 5402 5400 5399 5397 5395 5393 5391 5390 5387 5386 5384 5382 5381 5379 5377 5376 5374 5372 5371 5369 5368 5366 5364
5584 5579 5574 5570 5566 5561 5555 5547 5540 5534 5528 5522 5517 5512 5507 5502 5498 5493 5490 5487 5484 5481 5479 5477 5476 5474 5472 5469 5467 5464 5462 5460 5457 5455 5452 5450 5448 5445 5443 5441 5439 5436 5434 5431 5429 5426 5425 5423 5421 5420 5419 5418 5416 5416 5414 5413 5412 5410 5409 5407 5406 5404 5402 5401 5399 5398 5396 5394 5392 5391 5389 5387 5385 5384 5382 5381 5379 5377 5376 5374 5373 5371 5370 5368 5366 5365
5581 5576 5570 5565 5560 5556 5550 5543 5536 5529 5523 5518 5513 5508 5504 5499 5495 5491 5487 5484 5481 5479 5477 5476 5474 5472 5470 5468 5465 5462 5460 5458 5456 5453 5451 5448 5445 5443 5441 5438 5436 5434 5432 5429 5426 5424 5423 5421 5420 5419 5417 5416 5415 5414 5413 5412 5410 5409 5407 5406 5405 5403 5401 5400 5398 5397 5395 5393 5391 5390 5388 5386 5385 5383 5382 5381 5379 5377 5376 5374 5373 5371 5370 5368 5367 5366
5576 5571 5566 5561 5555 5550 5544 5538 5532 5526 5519 5513 5508 5503 5499 5496 5493 5489 5486 5483 5480 5478 5476 5474 5472 5470 5468 5466 5463 5461 5458 5456 5454 5451 5449 5446 5443 5441 5438 5436 5434 5432 5430 5427 5424 5422 5421 5420 5418 5417 5416 5415 5414 5413 5411 5410 5409 5407 5406 5405 5403 5402 5400 5399 5397 5396 5394 5392 5391 5389 5388 5386 5385 5383 5382 5381 5379 5377 5376 5375 5373 5372 5370 5369 5367 5366
5572 5567 5561 5556 5550 5545 5539 5533 5527 5521 5516 5510 5504 5499 5495 5491 5489 5486 5483 5481 5478 5476 5474 5472 5470 5468 5466 5463 5461 5459 5456 5454 5452 5449 5447 5444 5442 5439 5436 5434 5431 5430 5428 5425 5423 5421 5419 5418 5417 5416 5415 5414 5413 5412 5411 5409 5408 5406 5405 5403 5402 5401 5399 5398 5396 5395 5393 5392 5390 5388 5387 5386 5384 5383 5382 5381 5379 5378 5376 5375 5374 5372 5371 5370 5368 5367
5568 5563 5557 5551 5546 5540 5534 5528 5522 5517 5512 5507 5502 5497 5492 5489 5486 5483 5481 5479 5476 5474 5472 5470 5468 5466 5464 5462 5460 5457 5455 5453 5450 5448 5446 5443 5440 5437 5435 5432 5430 5428 5426 5424 5422 5420 5418 5417 5416 5415 5414 5413 5412 5411 5409 5408 5406 5405 5404 5402 5401 5400 5398 5397 5395 5394 5392 5391 5389 5388 5386 5385 5384 5383 5382 5381 5379 5378 5377 5376 5374 5373 5372 5371 5369 5368
5564 5559 5553 5547 5541 5535 5529 5523 5518 5513 5508 5504 5499 5495 5491 5488 5485 5482 5480 5478 5476 5473 5471 5469 5467 5465 5463 5461 5459 5456 5454 5451 5449 5446 5444 5441 5439 5436 5433 5430 5428 5426 5425 5423 5421 5419 5417 5416 5415 5414 5413 5412 5411 5410 5409 5407 5406 5404 5403 5401 5400 5399 5397 5396 5395 5393 5391 5390 5389 5387 5386 5385 5384 5383 5382 5381 5380 5378 5377 5376 5375 5374 5372 5371 5370 5369
5559 5554 5548 5542 5536 5530 5524 5519 5514 5509 5505 5501 5497 5494 5491 5487 5485 5482 5480 5478 5476 5473 5471 5468 5466 5464 5462 5460 5458 5456 5453 5450 5447 5445 5442 5440 5437 5435 5432 5429 5427 5425 5424 5422 5421 5419 5417 5416 5415 5413 5412 5411 5410 5409 5408 5406 5405 5403 5402 5401 5399 5398 5396 5395 5394 5392 5391 5389 5388 5387 5386 5385 5384 5383 5382 5381 5380 5379 5378 5376 5375 5374 5373 5371 5370 5369
5555 5549 5543 5537 5531 5526 5520 5515 5510 5506 5503 5499 5496 5493 5490 5487 5485 5482 5480 5477 5476 5473 5471 5468 5466 5463 5461 5459 5457 5455 5452 5449 5446 5443 5441 5438 5436 5434 5431 5429 5426 5424 5422 5421 5420 5419 5417 5416 5414 5413 5411 5410 5409 5408 5407 5406 5404 5402 5401 5400 5398 5397 5396 5394 5393 5391 5390 5389 5387 5386 5386 5385 5384 5383 5382 5381 5380 5379 5378 5377 5376 5374 5373 5371 5370 5369
5551 5545 5539 5533 5527 5522 5517 5512 5508 5504 5501 5498 5495 5492 5489 5487 5485 5482 5480 5477 5475 5473 5470 5468 5465 5463 5460 5458 5456 5454 5451 5448 5445 5442 5439 5437 5435 5433 5431 5428 5426 5424 5422 5420 5419 5418 5416 5415 5413 5412 5411 5410 5408 5407 5406 5404 5403 5401 5400 5399 5397 5396 5395 5393 5392 5391 5390 5388 5387 5386 5386 5385 5384 5383 5382 5381 5380 5379 5378 5376 5375 5374 5372 5371 5370 5368
5545 5539 5533 5528 5523 5518 5514 5510 5506 5502 5500 5497 5494 5491 5489 5486 5484 5481 5479 5476 5474 5472 5469 5467 5465 5462 5460 5457 5455 5452 5450 5447 5444 5441 5439 5436 5434 5432 5430 5428 5426 5424 5422 5420 5418 5416 5416 5414 5413 5411 5410 5409 5407 5406 5405 5403 5402 5401 5399 5398 5397 5396 5394 5393 5391 5390 5389 5388 5387 5386 5386 5385 5384 5383 5382 5381 5380 5379 5377 5376 5375 5373 5372 5371 5369 5368
5540 5535 5530 5525 5520 5516 5511 5508 5504 5501 5498 5496 5493 5491 5488 5485 5483 5480 5478 5476 5473 5471 5469 5466 5464 5461 5459 5457 5454 5451 5449 5447 5444 5441 5438 5436 5434 5431 5430 5428 5426 5424 5422 5421 5419 5417 5415 5414 5412 5411 5409 5408 5406 5405 5404 5403 5401 5400 5399 5397 5396 5395 5393 5392 5391 5390 5389 5388 5387 5386 5386 5385 5384 5383 5382 5381 5380 5379 5377 5376 5375 5373 5372 5371 5370 5368
5537 5531 5527 5522 5518 5514 5510 5506 5503 5500 5497 5494 5492 5489 5487 5484 5482 5480 5477 5475 5472 5470 5468 5465 5463 5461 5458 5456 5454 5451 5448 5446 5443 5441 5438 5436 5433 5431 5429 5427 5426 5424 5422 5421 5419 5417 5416 5414 5412 5411 5409 5408 5406 5405 5403 5402 5401 5399 5398 5397 5396 5394 5393 5392 5391 5389 5388 5387 5387 5386 5385 5385 5384 5383 5382 5381 5380 5378 5377 5376 5375 5374 5372 5371 5370 5368
5533 5528 5524 5520 5516 5512 5508 5505 5502 5499 5496 5493 5491 5488 5486 5484 5481 5479 5476 5474 5471 5469 5467 5465 5462 5460 5457 5455 5453 5450 5448 5445 5442 5440 5437 5435 5433 5431 5428 5427 5425 5423 5422 5420 5419 5417 5416 5414 5412 5411 5410 5408 5406 5405 5403 5402 5400 5399 5397 5396 5395 5394 5392 5391 5390 5389 5388 5387 5386 5386 5385 5385 5384 5383 5382 5381 5380 5378 5377 5376 5375 5374 5372 5371 5370 5368
5531 5526 5521 5517 5513 5510 5506 5503 5501 5498 5495 5492 5490 5487 5485 5483 5481 5478 5476 5473 5471 5469 5466 5464 5462 5459 5457 5454 5452 5450 5447 5444 5442 5439 5437 5435 5432 5431 5428 5426 5425 5423 5422 5420 5419 5417 5416 5414 5412 5411 5410 5408 5406 5405 5403 5401 5400 5399 5397 5396 5395 5393 5392 5391 5390 5389 5388 5387 5386 5386 5385 5384 5383 5382 5381 5380 5379 5378 5377 5376 5375 5373 5372 5371 5369 5368
5528 5523 5519 5515 5511 5508 5505 5502 5499 5496 5494 5491 5489 5487 5484 5482 5480 5477 5475 5473 5471 5468 5466 5464 5461 5459 5456 5454 5451 5449 5446 5443 5441 5439 5436 5434 5432 5430 5428 5427 5425 5423 5422 5420 5419 5417 5416 5414 5413 5411 5409 5408 5406 5405 5403 5401 5400 5399 5397 5396 5395 5393 5392 5391 5390 5389 5388 5387 5386 5386 5385 5384 5383 5382 5381 5380 5379 5378 5377 5376 5374 5372 5371 5370 5368 5367
5526 5521 5517 5513 5510 5506 5503 5501 5498 5496 5493 5491 5488 5486 5484 5481 5479 5477 5475 5472 5470 5468 5466 5463 5461 5459 5456 5453 5451 5448 5445 5442 5440 5438 5436 5434 5432 5431 5429 5427 5426 5424 5422 5421 5419 5417 5416 5414 5413 5411 5409 5408 5406 5405 5403 5402 5400 5399 5397 5396 5395 5393 5392 5391 5390 5389 5388 5387 5386 5386 5385 5384 5383 5382 5381 5380 5379 5377 5376 5375 5373 5371 5370 5368 5366 5365
5524 5519 5515 5512 5509 5506 5503 5500 5498 5495 5493 5490 5487 5485 5483 5481 5479 5476 5474 5472 5470 5468 5465 5463 5461 5458 5456 5453 5450 5447 5445 5442 5440 5437 5436 5434 5432 5430 5429 5427 5426 5424 5423 5421 5419 5418 5416 5414 5413 5411 5409 5408 5406 5405 5403 5402 5400 5399 5397 5396 5395 5393 5392 5391 5390 5389 5388 5387 5386 5386 5385 5384 5382 5381 5381 5379 5378 5377 5376 5374 5372 5371 5369 5367 5366 5364
5522 5518 5515 5511 5508 5505 5502 5500 5497 5495 5492 5490 5487 5485 5483 5481 5478 5476 5474 5472 5470 5467 5465 5462 5460 5458 5455 5453 5450 5448 5445 5442 5440 5437 5436 5434 5432 5430 5429 5427 5426 5424 5423 5421 5420 5418 5416 5415 5413 5411 5410 5408 5406 5405 5404 5402 5401 5399 5398 5396 5395 5394 5393 5391 5391 5390 5389 5387 5386 5386 5385 5383 5382 5381 5380 5379 5378 5376 5375 5374 5372 5371 5369 5367 5366 5364
5521 5517 5514 5511 5508 5505 5502 5499 5496 5494 5491 5489 5487 5485 5482 5480 5478 5476 5474 5471 5469 5467 5465 5462 5460 5458 5456 5453 5451 5449 5446 5443 5441 5438 5436 5434 5432 5431 5429 5427 5426 5424 5423 5421 5420 5419 5417 5415 5413 5412 5410 5408 5407 5405 5404 5402 5401 5400 5398 5396 5395 5394 5393 5392 5391 5390 5389 5388 5386 5386 5384 5383 5382 5381 5380 5379 5378 5376 5375 5374 5373 5371 5370 5368 5366 5365
5520 5516 5513 5510 5507 5504 5501 5499 5496 5493 5491 5489 5486 5484 5482 5480 5478 5476 5473 5471 5469 5467 5464 5462 5460 5458 5456 5454 5452 5449 5447 5444 5441 5439 5436 5434 5432 5431 5429 5427 5426 5425 5423 5421 5420 5419 5417 5416 5414 5412 5411 5409 5407 5406 5404 5403 5401 5400 5398 5397 5396 5395 5393 5392 5391 5390 5389 5388 5386 5386 5384 5383 5382 5381 5380 5379 5377 5376 5375 5374 5373 5371 5370 5368 5367 5365
5519 5516 5512 5509 5506 5503 5501 5498 5495 5493 5490 5488 5486 5483 5481 5479 5477 5475 5472 5470 5468 5466 5464 5461 5459 5457 5455 5453 5451 5449 5446 5444 5441 5439 5436 5434 5432 5431 5429 5427 5426 5425 5423 5422 5420 5419 5417 5416 5414 5412 5411 5409 5408 5406 5405 5403 5402 5400 5399 5397 5396 5395 5394 5392 5391 5390 5389 5388 5386 5385 5384 5383 5382 5381 5380 5378 5377 5376 5375 5374 5372 5371 5369 5368 5366 5365
5518 5515 5511 5508 5505 5502 5500 5497 5494 5492 5490 5487 5485 5483 5481 5478 5476 5474 5472 5470 5467 5465 5463 5461 5458 5456 5454 5452 5450 5447 5446 5443 5441 5439 5436 5435 5433 5431 5429 5428 5426 5425 5423 5422 5421 5419 5417 5416 5414 5413 5411 5410 5408 5406 5405 5403 5402 5401 5399 5398 5396 5395 5394 5393 5391 5390 5389 5388 5386 5385 5384 5383 5382 5381 5379 5378 5377 5376 5374 5373 5371 5370 5368 5367 5365 5363
5517 5514 5511 5507 5504 5501 5499 5496 5494 5491 5489 5486 5484 5482 5480 5478 5476 5474 5472 5470 5467 5465 5462 5460 5457 5455 5453 5451 5448 5446 5444 5442 5441 5438 5436 5435 5433 5431 5429 5428 5426 5425 5423 5422 5421 5419 5418 5416 5415 5413 5411 5410 5408 5406 5405 5403 5402 5401 5399 5398 5396 5395 5394 5393 5391 5390 5389 5388 5386 5385 5384 5383 5381 5380 5379 5378 5376 5375 5374 5372 5371 5369 5367 5366 5364 5362
5516 5512 5509 5506 5503 5501 5498 5495 5492 5490 5488 5486 5484 5481 5480 5477 5476 5474 5471 5469 5467 5465 5462 5460 5457 5455 5453 5450 5448 5446 5443 5441 5440 5438 5436 5435 5433 5431 5430 5428 5426 5425 5423 5422 5421 5419 5418 5416 5415 5413 5411 5410 5408 5407 5405 5404 5402 5401 5400 5398 5397 5395 5394 5393 5391 5390 5389 5387 5386 5385 5384 5382 5381 5380 5379 5377 5376 5375 5373 5371 5370 5368 5366 5365 5363 5361
5515 5511 5508 5505 5502 5500 5497 5494 5492 5489 5487 5485 5483 5481 5479 5477 5475 5473 5471 5469 5467 5465 5462 5460 5458 5456 5453 5451 5448 5446 5443 5441 5439 5437 5436 5434 5433 5431 5430 5428 5426 5425 5423 5421 5420 5419 5417 5416 5415 5413 5411 5410 5408 5407 5405 5404 5402 5401 5400 5398 5397 5396 5394 5393 5391 5390 5388 5387 5386 5384 5383 5382 5381 5379 5378 5377 5376 5374 5372 5371 5369 5368 5366 5364 5362 5360
5513 5510 5507 5504 5502 5499 5496 5494 5491 5489 5486 5484 5482 5480 5478 5476 5474 5473 5471 5469 5467 5465 5462 5460 5458 5456 5454 5451 5449 5447 5444 5442 5440 5437 5436 5434 5432 5431 5430 5428 5427 5425 5423 5421 5420 5418 5417 5416 5414 5413 5411 5410 5409 5407 5406 5404 5402 5401 5400 5398 5397 5395 5394 5392 5391 5390 5388 5387 5386 5384 5382 5381 5380 5378 5377 5376 5375 5373 5372 5370 5369 5367 5365 5363 5361 5360
5512 5509 5506 5504 5501 5498 5496 5493 5491 5488 5486 5484 5481 5480 5478 5476 5474 5472 5470 5468 5466 5465 5462 5461 5458 5456 5454 5452 5450 5447 5445 5443 5441 5438 5436 5434 5432 5431 5429 5428 5427 5426 5424 5422 5420 5418 5416 5415 5414 5412 5411 5410 5408 5407 5406 5404 5402 5401 5400 5398 5396 5395 5394 5392 5391 5389 5388 5386 5385 5384 5382 5381 5379 5378 5376 5375 5374 5372 5371 5369 5368 5366 5364 5363 5361 5359
5512 5509 5506 5503 5501 5498 5495 5492 5490 5487 5485 5483 5481 5479 5477 5475 5473 5472 5470 5468 5466 5465 5463 5461 5459 5456 5454 5452 5450 5448 5446 5443 5441 5439 5436 5434 5432 5431 5429 5428 5426 5425 5424 5423 5421 5419 5417 5415 5413 5411 5410 5409 5408 5406 5405 5404 5402 5401 5399 5398 5396 5395 5394 5392 5391 5389 5387 5386 5385 5383 5382 5380 5379 5377 5376 5374 5373 5371 5370 5368 5367 5365 5364 5362 5360 5358
5511 5508 5505 5502 5500 5497 5495 5492 5490 5487 5485 5482 5480 5478 5476 5475 5473 5471 5470 5468 5466 5464 5463 5461 5459 5456 5454 5452 5450 5448 5446 5444 5441 5439 5437 5435 5433 5431 5429 5427 5426 5425 5423 5422 5421 5420 5418 5416 5413 5411 5410 5408 5407 5406 5405 5403 5402 5400 5399 5397 5396 5395 5393 5391 5390 5388 5387 5386 5384 5382 5381 5380 5378 5377 5376 5374 5372 5371 5369 5368 5366 5365 5363 5361 5359 5358
5510 5507 5505 5502 5499 5497 5494 5492 5489 5487 5484 5482 5480 5477 5476 5474 5472 5471 5469 5467 5466 5464 5462 5461 5459 5456 5454 5452 5450 5448 5446 5444 5442 5440 5438 5436 5433 5431 5429 5427 5426 5424 5423 5421 5420 5419 5418 5416 5415 5412 5410 5408 5407 5406 5404 5403 5401 5400 5398 5397 5396 5394 5392 5391 5389 5388 5386 5385 5383 5382 5380 5379 5378 5376 5375 5373 5372 5370 5369 5367 5366 5364 5362 5361 5359 5357
5510 5507 5504 5501 5499 5496 5494 5491 5489 5486 5484 5481 5479 5477 5475 5473 5471 5470 5468 5466 5465 5463 5462 5460 5458 5456 5454 5452 5450 5448 5446 5444 5442 5440 5438 5436 5434 5432 5430 5428 5426 5424 5422 5421 5419 5418 5417 5416 5415 5413 5411 5409 5407 5405 5404 5402 5401 5399 5398 5396 5395 5393 5391 5390 5389 5387 5385 5384 5382 5381 5380 5378 5377 5376 5374 5373 5371 5370 5368 5366 5365 5363 5362 5360 5358 5356